Location: Unsp...
(0.0000°N, 0.0000°E)
Time: 15:39:38
(UTC+01:00)

Daily predictions for brighter satellites

Satellite Brightness Start Highest point End
(mag) Time Altitude Azimuth Time Altitude Azimuth Time Altitude Azimuth
Ariane H10-3 3.0 19:32:49 10° WSW 19:35:37 49° S 19:44:57 10° ESE
Cosmos 2278 Rocket 2.2 19:34:08 10° N 19:39:46 75° ENE 19:45:26 10° SSE
Iridium 4 Rocket 3.3 19:37:44 10° S 19:42:48 68° E 19:47:24 10° N
Lacrosse 5 rocket 3.3 19:42:39 10° NE 19:43:53 11° ENE 19:45:09 10° ENE
SJ-6B 3.4 19:47:16 10° SE 19:50:56 36° ENE 19:54:37 10° NNE
BREEZE-M DEB (TANK) 3.8 19:49:45 10° NNE 19:51:36 15° ENE 19:54:08 10° ESE
Cosmos 1655 Rocket 4.2 19:49:23 10° SSE 19:55:35 52° E 20:01:45 10° NNE
SWIFT 3.3 19:53:44 10° SW 19:57:43 37° SSE 20:01:00 14° E
Cosmos 1627 Rocket 4.5 19:52:28 10° S 19:58:46 81° E 20:04:58 10° N
Meteor 2-3 Rocket 4.4 19:56:20 10° SSE 20:01:19 33° E 20:06:18 10° NNE
Cosmos 1455 2.1 19:58:24 10° N 20:02:14 78° E 20:06:06 10° S
GPS 2-04 Rocket1 4.1 19:59:28 10° WNW 20:03:34 42° SW 20:07:35 10° SE
Cosmos 192 4.3 19:58:50 10° S 20:03:41 69° ESE 20:08:32 10° NNE
Palapa B4 Rocket 4.1 19:58:54 10° WSW 20:04:06 73° SSE 20:10:31 17° ENE
USA 129 1.4 20:07:29 44° NE 20:07:52 58° E 20:09:54 10° S
Resurs 01 Rocket 2.4 20:06:28 10° SE 20:10:20 29° ENE 20:14:11 10° NNE
Cosmos 1862 Rocket 4.5 20:09:08 17° NE 20:11:21 26° E 20:14:57 10° SE
Atlas Centaur 2 1.6 20:08:51 10° NW 20:13:29 51° NNE 20:15:39 24° E
FENGYUN 3A 4.0 20:09:47 10° SE 20:14:44 39° ENE 20:19:40 10° N
METEOR-M 4.1 20:10:08 10° SSE 20:15:30 87° WSW 20:20:51 10° NNW
ARIANE 44LP R/B 2.6 20:10:58 10° W 20:15:42 51° N 20:16:25 35° NE
Cosmos 1242 Rocket 3.1 20:14:39 25° NE 20:15:56 34° E 20:19:12 10° SSE
FREGAT/IRIS 3.2 20:16:13 10° S 20:19:14 60° W 20:22:14 10° NNW
In-Cosmos 22 Rocket 4.0 20:13:52 10° S 20:19:19 83° E 20:24:38 10° N
ARIANE 44L R/B 2.5 20:20:23 10° WSW 20:22:09 31° S 20:22:40 27° SSE
Cosmos 2297 3.6 20:18:55 10° NNW 20:24:38 84° ENE 20:30:23 10° SSE
Spelda 3.0 20:18:30 10° W 20:27:23 65° S 20:28:53 31° ESE
Ariane H10-3 1.1 20:27:43 10° W 20:29:52 79° N 20:30:26 54° E
Cosmos 1869 Rocket 3.5 20:27:34 10° S 20:31:57 63° E 20:33:55 31° NNE
Milstar 3 4.0 20:29:46 10° NNW 20:35:28 26° NNE 20:36:24 25° NE
H-2A R/B 3.1 20:38:52 10° SSE 20:41:56 49° SE 20:41:56 49° SE
GPS 2-18 Rocket1 3.2 20:40:30 10° WNW 20:44:25 71° SSW 20:44:47 65° SSE
Cosmos 1892 2.5 20:42:16 10° S 20:45:59 83° SE 20:45:59 83° SE
OAO 3 Rocket 3.0 20:43:38 10° NW 20:48:28 90° W 20:49:33 54° SE
Hubble Space Telescope 0.7 20:46:23 10° WNW 20:50:18 80° NW 20:50:18 80° NW
Cosmos 2266 Rocket 3.9 20:45:44 10° S 20:51:47 61° E 20:53:25 46° NE
OAO 2 Rocket 3.9 20:47:43 10° SW 20:52:44 42° SE 20:53:04 42° SE
ARIANE 5 DEB (SYLDA) 3.8 20:49:19 10° W 20:51:40 31° WSW 20:51:40 31° WSW
FengYun 1-2 T 4.4 20:47:27 10° S 20:53:04 72° WSW 20:58:36 10° NNW
ALOS 2.9 20:50:19 10° S 20:54:53 56° WSW 20:59:27 10° NNW
NOSS 2-3 (D) 3.7 20:50:41 10° SSW 20:55:19 65° SE 20:55:19 65° SE
SPELTRA 3.3 20:52:21 10° WSW 20:56:06 39° S 20:56:11 39° S
COSMOS 2406 3.0 20:54:38 10° S 21:00:16 69° ESE 21:00:30 68° E
Cosmos 1553 Rocket 4.1 21:15:09 59° SE 21:15:09 59° SE 21:20:27 10° S
ATLAS 2AS CENTAUR R/B 3.2 21:13:00 10° SW 21:19:38 59° WNW 21:22:04 41° N
MAQSAT/ARIANE V 3.1 21:02:06 10° W 21:20:18 60° SSW 21:20:41 59° S
Lacrosse 5 rocket 3.1 21:18:58 10° NW 21:21:50 31° W 21:21:50 31° W
Ariane H10-3 3.1 21:34:55 10° WSW 21:37:16 45° SW 21:37:16 45° SW
Maqsat-H 4.2 21:45:44 10° WSW 21:46:56 18° WSW 21:46:56 18° WSW
